This is the latest recevied weather packets stored in our database for station/object VK4HIT-13. If no packets are shown the sender has not sent any weather packets the latest 10 day(s).
| Time | Temp. | Humidity | Pressure | Rain* | Wind** | Luminosity | Snow |
|---|---|---|---|---|---|---|---|
| 1778114067 | 22.78° C | 60% | 1016.6 hPa | 0 mm | - | - | - |
| 1778113767 | 22.22° C | 62% | 1016.6 hPa | 0 mm | - | - | - |
| 1778113467 | 22.22° C | 62% | 1016.6 hPa | 0 mm | - | - | - |
| 1778113167 | 22.22° C | 64% | 1016.7 hPa | 0 mm | - | - | - |
| 1778112867 | 22.22° C | 65% | 1016.7 hPa | 0 mm | - | - | - |
| 1778112567 | 22.78° C | 66% | 1017 hPa | 0 mm | - | - | - |
| 1778112267 | 22.22° C | 66% | 1017 hPa | 0 mm | - | - | - |
| 1778111967 | 22.22° C | 68% | 1017 hPa | 0 mm | - | - | - |
| 1778111667 | 21.67° C | 68% | 1017.1 hPa | 0 mm | - | - | - |
| 1778111367 | 21.67° C | 70% | 1017.1 hPa | 0 mm | - | - | - |
| 1778111067 | 21.11° C | 71% | 1017.3 hPa | 0 mm | - | - | - |
| 1778110767 | 21.11° C | 72% | 1017.1 hPa | 0 mm | - | - | - |
| 1778110467 | 21.11° C | 73% | 1017.3 hPa | 0 mm | - | - | - |
| 1778110167 | 21.11° C | 75% | 1017.2 hPa | 0 mm | - | - | - |
| 1778109867 | 21.11° C | 76% | 1017.3 hPa | 0 mm | - | - | - |
| 1778109567 | 21.11° C | 76% | 1017.3 hPa | 0 mm | - | - | - |
| 1778109267 | 21.11° C | 77% | 1017.3 hPa | 0 mm | - | - | - |
| 1778108967 | 21.11° C | 80% | 1017.3 hPa | 0 mm | - | - | - |
| 1778108667 | 20.56° C | 84% | 1017.4 hPa | 0 mm | - | - | - |
| 1778108367 | 20° C | 84% | 1017.4 hPa | 0 mm | - | - | - |
| 1778108067 | 20° C | 85% | 1017.5 hPa | 0 mm | - | - | - |
| 1778107767 | 20° C | 87% | 1017.5 hPa | 0 mm | - | - | - |
| 1778107467 | 20° C | 88% | 1017.4 hPa | 0 mm | - | - | - |
| 1778107167 | 19.44° C | 89% | 1017.3 hPa | 0 mm | - | - | - |
| 1778106867 | 19.44° C | 89% | 1017.3 hPa | 0 mm | - | - | - |
* Rain latest hour (hover to see other rain measurements)
** Current wind speed in m/s (hover to see current wind gust speed)